Location: Bouchavesnes-Bergen
(49.9859°N, 2.9203°E)
Time: 03:19:52
(UTC+00:00)

Cosmos 2154 Rocket - Pass Details

Date: 09 March 2021
Orbit: 966 x 996 km, 82.9° (Epoch: 11 April)

Event Time Altitude Azimuth Distance (km) Brightness Sun altitude
Rises 04:55:56 0° 350° (N) 3,675 7.0 -13.5°
Reaches altitude 10° 04:58:27 10° 351° (N) 2,727 6.3 -13.1°
Maximum altitude 05:04:43 86° 79° (E) 985 4.1 -12.1°
Drops below altitude 10° 05:10:59 10° 171° (S) 2,727 6.4 -11.1°
Sets 05:13:29 0° 171° (S) 3,676 7.1 -10.7°
